This is the latest recevied weather packets stored in our database for station/object W1LBM. If no packets are shown the sender has not sent any weather packets the latest 10 day(s).
| Time | Temp. | Humidity | Pressure | Rain* | Wind** | Luminosity | Snow |
|---|---|---|---|---|---|---|---|
| 1777787491 | 7.78° C | 67% | 1012.1 hPa | 0 mm | - | 0 W/m² | - |
| 1777787186 | 7.78° C | 67% | 1012 hPa | 0 mm | - | 0 W/m² | - |
| 1777786883 | 7.78° C | 68% | 1012.3 hPa | 0 mm | - | 0 W/m² | - |
| 1777786581 | 7.78° C | 68% | 1012.6 hPa | 0 mm | - | 0 W/m² | - |
| 1777786280 | 7.78° C | 67% | 1012.4 hPa | 0 mm | - | 0 W/m² | - |
| 1777785975 | 8.33° C | 66% | 1012.3 hPa | 0 mm | - | 0 W/m² | - |
| 1777785672 | 8.33° C | 65% | 1012.7 hPa | 0 mm | - | 0 W/m² | - |
| 1777785368 | 8.33° C | 62% | 1012.4 hPa | 0 mm | - | 0 W/m² | - |
| 1777785066 | 8.33° C | 61% | 1012.4 hPa | 0 mm | - | 0 W/m² | - |
| 1777784761 | 8.33° C | 63% | 1012.7 hPa | 0 mm | - | 0 W/m² | - |
| 1777784459 | 8.33° C | 64% | 1012.7 hPa | 0 mm | - | 0 W/m² | - |
| 1777784155 | 8.33° C | 63% | 1012.6 hPa | 0 mm | - | 0 W/m² | - |
| 1777783853 | 8.33° C | 64% | 1012.7 hPa | 0 mm | - | 0 W/m² | - |
| 1777783549 | 8.33° C | 64% | 1012.9 hPa | 0 mm | - | 0 W/m² | - |
| 1777783247 | 8.89° C | 63% | 1013 hPa | 0 mm | - | 0 W/m² | - |
| 1777782943 | 8.89° C | 61% | 1013.2 hPa | 0 mm | - | 0 W/m² | - |
| 1777782640 | 8.89° C | 61% | 1012.8 hPa | 0 mm | - | 0 W/m² | - |
| 1777782337 | 8.89° C | 61% | 1013 hPa | 0 mm | - | 0 W/m² | - |
| 1777782033 | 8.89° C | 62% | 1013 hPa | 0 mm | - | 0 W/m² | - |
| 1777781730 | 8.89° C | 65% | 1013 hPa | 0 mm | - | 0 W/m² | - |
| 1777781428 | 8.89° C | 69% | 1013.1 hPa | 0 mm | - | 0 W/m² | - |
| 1777781125 | 8.89° C | 72% | 1013.2 hPa | 0 mm | - | 0 W/m² | - |
| 1777780822 | 8.89° C | 72% | 1013.5 hPa | 0 mm | - | 0 W/m² | - |
| 1777780519 | 8.89° C | 81% | 1013.3 hPa | 0 mm | - | 0 W/m² | - |
| 1777780216 | 8.89° C | 83% | 1013.4 hPa | 0 mm | - | 0 W/m² | - |
* Rain latest hour (hover to see other rain measurements)
** Current wind speed in m/s (hover to see current wind gust speed)